Weather in Galati

Romania     45°26′58″N   28°02′00″E
temp.,
°C
wind,
m/s
gust,
m/s
humid.,
%
clouds,
%
prec.,
mm/h
press.,
hPa
HPBL,
m
5 march, fri
fri523:00+9sw346433 0.0 101396
02:00+7wsw236317 0.0 101323
05:00+6wsw23570 0.0 101223
08:00+7nnw33530 0.0 101292
11:00+13n01403 0.0 1013528
14:00+15sw333115 0.0 10111062
17:00+15ssw35309 0.0 1011791
20:00+11sw234153 0.0 101235
6 march, sat
sat623:00+10nw4105499 0.0 1013390
02:00+6nnw6127668 0.0 1016641
05:00+4n7137314 0.0 1018868
08:00+3n8117057 0.0 1023900
11:00+5n91147100 0.0 10251449
14:00+6n7932100 0.0 10261985
17:00+5n683699 0.0 10272018
20:00+3n354767 0.0 1029193
7 march, sun
sun723:00+2nnw225115 0.0 103132
02:00+1nw115248 0.0 103122
05:00−1wsw235521 0.0 103026
08:00+1sw584911 0.0 1030373
11:00+6sw710400 0.0 10271269
14:00+8sw78360 0.0 10241452
17:00+8sw68420 0.0 10211155
20:00+5sw511570 0.0 1021429
8 march, mon
mon823:00+3sw5116463 0.0 1020376
02:00+2sw497241 0.0 1018235
05:00+1ssw367833 0.0 1016148
08:00+2sw357217 0.0 1016217
11:00+7sw11400 0.0 1015531
14:00+9w222740 0.0 10141107
17:00+10w232432 0.0 10121262
20:00+7wsw113416 0.0 101422
9 march, tue
tue923:00+5nw33380 0.0 101438
02:00+4nnw613550 0.0 1015375
05:00+1n9147232 0.0 1017612
08:00+1n8125617 0.0 1020810
11:00+4n68410 0.0 10211229
14:00+6nne563636 0.0 10211597
17:00+5nne564071 0.0 10211459
20:00+3nne474986 0.0 1024531